Location: ???????
(60.4260°N, 46.9069°E)
Time: 04:18:46
(UTC+00:00)

Meteor 2-9 Rocket - Pass Details

Date: 30 March 2020
Orbit: 792 x 895 km, 81.3° (Epoch: 27 May)

Event Time Altitude Azimuth Distance (km) Brightness Sun altitude
Rises 00:55:58 0° 342° (NNW) 3,471 7.5 -10.9°
Reaches altitude 10° 00:58:24 10° 342° (NNW) 2,542 6.8 -10.6°
Maximum altitude 01:04:12 81° 256° (WSW) 907 4.3 -10.0°
Drops below altitude 10° 01:10:04 10° 170° (S) 2,565 6.6 -9.3°
Sets 01:12:32 0° 170° (S) 3,503 7.3 -9.1°
